DECAYED
Showing default

FLOCK 4Q 14, 58311 (Decayed)

Orbit data source: Space-Track

FLOCK 4Q 14, 58311 was a payload satellite owned by Planet (US) in LEO that was launched on Sat, 11 Nov 2023 UTC via an FALCON 9 launch vehicle from the Air Force Western Test Range (AFWTR). Payload-class satellites include a variety of spacecraft equipped with specific instruments for various scientific and technological missions. These include communications satellites like Starlink; space stations such as the ISS; scientific satellites like the Hubble; Earth observation satellites from companies like Planet Labs, Umbra, and HawkEye 360; GPS; miniature CubeSats for education and research; and military/defense satellites.

Not visible in the next 10 days
Identifier
58311, 2023-174BH
Orbit
Decayed
Country
Flag of USUS
Related business
Manufacturer
Planet
Mission
Decayed Commercial Imaging
Bus & Motor
CUBESAT 3U, Unknown motor
Mass
5.7 kg wet, 5.7 kg dry
Launch date (UTC)
2023-11-11 (3 years ago)
Launch vehicle
FALCON 9
Launch site
Air Force Western Test Range (AFWTR)
Object type
Payload
Rocket body
Debris
Shape & HBR
Box + 2 Pan, 1.0 m
Radar Cross Section
0.072 m², Medium (>0.1 m² and < 1m²)

Expand to show TLE details & history
Last TLE update: 8 months ago

TLE from 8 months ago
0 FLOCK 4Q 14
1 58311U 23174BH  25355.89007688  .15233152  25080-5  57691-3 0  9994
2 58311  97.3630  82.5487 0011420 290.8554  69.1524 16.43044218118654
Epoch: 2025-12-21T21:21Z
TLE epoch observation values (Epoch: 2025-12-21T21:21:42.642Z)
Latitude
-0°
Longitude
31.42499°
Altitude
158.324 km
Speed
7.813 km/s
True Right ascension
05h 30m 11s
True Declination
0° 00' 00"
Sunlit
Object was in full shadow at epoch
Visualization orbit readout
Latitude
Unknown
Longitude
Unknown
Altitude
Unknown
Speed
Unknown
Apparent Right ascension
Unknown
Apparent Declination
Unknown
Sunlit
N/A
Visualization observer readout
Local Sidereal Time
06:27:01
Azimuth
Unknown
Elevation
Unknown
Doppler factor
Unknown
Orbital elements
Apogee altitude
161.979 km
Perigee altitude
147.059 km
Semi-major axis
6,532.656 km
Eccentricity
0.00114
Inclination
97.363°
RAAN
82.5487°
Arg. of periapsis
290.8554°
True anomaly
69.27476°
Mean anomaly
69.1524°
Eccentric anomaly
69.21357°
Mean motion
4.11063 °/min
Orbital period
87.58 mins
BSTAR
0.00057691
Loading maneuver chart data...
Computing Atmospheric mass density...

Documentation

Showing up to 5 results
|